When you browse on this site, cookies collect data to enhance your experience and personalize the content and advertising you see.
Visit our Privacy Policy to learn more. By continuing to use the site, you agree to this use of cookies and data.
  • In Austria
  • List of Countries
  • For 7 days
  • Water Temperature
  • Weather Map
  • News
  • Weather Widgets
  • user-avatar
    Login

    Hourly Weather Tlanalapan

    Today, 24 January, Friday

    Time Temperature Precipitation Wind Pressure Humidity
    00:00 +10°C° 0.4 mm 2 mps 566 mmHg 81%
    01:00 +11°C° 0.4 mm 1 mps 565 mmHg 84%
    02:00 +10°C° 0.4 mm 1 mps 565 mmHg 86%
    03:00 +10°C° 0 mm 1 mps 565 mmHg 86%
    04:00 +10°C° 0 mm 1 mps 565 mmHg 85%
    05:00 +10°C° 0 mm 1 mps 565 mmHg 85%
    06:00 +11°C° 0 mm 1 mps 566 mmHg 82%
    07:00 +11°C° 0 mm 1 mps 567 mmHg 78%
    08:00 +12°C° 0 mm 1 mps 568 mmHg 74%
    09:00 +13°C° 0.1 mm 1 mps 568 mmHg 67%
    10:00 +14°C° 0.1 mm 1 mps 568 mmHg 61%
    11:00 +15°C° 0.1 mm 1 mps 569 mmHg 54%
    12:00 +16°C° 0.2 mm 1 mps 569 mmHg 52%
    13:00 +16°C° 0.2 mm 2 mps 568 mmHg 51%
    14:00 +17°C° 0.2 mm 2 mps 568 mmHg 49%
    15:00 +16°C° 0.2 mm 2 mps 567 mmHg 54%
    16:00 +15°C° 0.2 mm 2 mps 567 mmHg 59%
    17:00 +14°C° 0.2 mm 2 mps 567 mmHg 64%
    18:00 +13°C° 0.1 mm 2 mps 567 mmHg 71%
    19:00 +12°C° 0.1 mm 2 mps 567 mmHg 77%
    20:00 +10°C° 0.1 mm 2 mps 567 mmHg 84%
    21:00 +10°C° 0 mm 2 mps 567 mmHg 86%
    22:00 +9°C° 0 mm 2 mps 567 mmHg 87%
    23:00 +10°C° 0 mm 1 mps 566 mmHg 88%

    Tomorrow, 25 January, Saturday

    Time Temperature Precipitation Wind Pressure Humidity
    00:00 +10°C° 0 mm 1 mps 566 mmHg 89%
    01:00 +9°C° 0 mm 1 mps 565 mmHg 89%
    02:00 +9°C° 0 mm 1 mps 565 mmHg 90%
    03:00 +9°C° 0 mm 1 mps 565 mmHg 90%
    04:00 +9°C° 0 mm 1 mps 565 mmHg 90%
    05:00 +8°C° 0 mm 1 mps 565 mmHg 90%
    06:00 +9°C° 0 mm 1 mps 566 mmHg 84%
    07:00 +10°C° 0 mm 1 mps 567 mmHg 78%
    08:00 +12°C° 0 mm 1 mps 568 mmHg 73%
    09:00 +13°C° 0 mm 2 mps 568 mmHg 65%
    10:00 +14°C° 0 mm 3 mps 569 mmHg 58%
    11:00 +17°C° 0 mm 3 mps 569 mmHg 51%
    12:00 +18°C° 0 mm 4 mps 569 mmHg 47%
    13:00 +18°C° 0 mm 4 mps 569 mmHg 44%
    14:00 +19°C° 0 mm 4 mps 569 mmHg 41%
    15:00 +18°C° 0 mm 4 mps 568 mmHg 45%
    16:00 +17°C° 0 mm 4 mps 568 mmHg 49%
    17:00 +16°C° 0 mm 3 mps 567 mmHg 52%
    18:00 +14°C° 0 mm 3 mps 567 mmHg 58%
    19:00 +14°C° 0 mm 2 mps 567 mmHg 63%
    20:00 +13°C° 0 mm 1 mps 567 mmHg 68%
    21:00 +12°C° 0 mm 1 mps 567 mmHg 71%
    22:00 +12°C° 0 mm 1 mps 567 mmHg 73%
    23:00 +11°C° 0 mm 1 mps 566 mmHg 76%

    Day after tomorrow, 26 January, Sunday

    Time Temperature Precipitation Wind Pressure Humidity
    00:00 +11°C° 0 mm 1 mps 566 mmHg 77%
    01:00 +10°C° 0 mm 1 mps 566 mmHg 78%
    02:00 +10°C° 0 mm 1 mps 565 mmHg 79%
    03:00 +10°C° 0 mm 1 mps 565 mmHg 80%
    04:00 +9°C° 0 mm 1 mps 565 mmHg 81%
    05:00 +9°C° 0 mm 1 mps 565 mmHg 83%
    06:00 +10°C° 0 mm 1 mps 566 mmHg 77%
    07:00 +11°C° 0 mm 1 mps 567 mmHg 71%
    08:00 +12°C° 0 mm 1 mps 568 mmHg 66%
    09:00 +14°C° 0 mm 1 mps 568 mmHg 58%
    10:00 +16°C° 0 mm 2 mps 569 mmHg 50%
    11:00 +17°C° 0 mm 3 mps 569 mmHg 42%
    12:00 +18°C° 0 mm 3 mps 569 mmHg 42%
    13:00 +18°C° 0 mm 3 mps 568 mmHg 41%
    14:00 +18°C° 0 mm 4 mps 568 mmHg 41%
    15:00 +17°C° 0 mm 3 mps 567 mmHg 45%
    16:00 +16°C° 0 mm 3 mps 567 mmHg 49%
    17:00 +16°C° 0 mm 2 mps 567 mmHg 53%
    18:00 +15°C° 0.1 mm 2 mps 567 mmHg 58%
    19:00 +14°C° 0.1 mm 1 mps 567 mmHg 62%
    20:00 +13°C° 0.1 mm 1 mps 567 mmHg 67%
    21:00 +13°C° 0 mm 1 mps 567 mmHg 70%
    22:00 +11°C° 0 mm 0 mps 567 mmHg 74%
    23:00 +10°C° 0 mm 0 mps 566 mmHg 77%

    27 January, Monday

    Time Temperature Precipitation Wind Pressure Humidity
    00:00 +10°C° 0 mm 0 mps 566 mmHg 79%
    01:00 +9°C° 0 mm 0 mps 565 mmHg 81%
    02:00 +9°C° 0 mm 0 mps 565 mmHg 83%
    03:00 +9°C° 0 mm 0 mps 565 mmHg 84%
    04:00 +8°C° 0 mm 0 mps 565 mmHg 84%
    05:00 +8°C° 0 mm 0 mps 565 mmHg 85%
    06:00 +10°C° 0 mm 1 mps 565 mmHg 79%
    07:00 +11°C° 0 mm 1 mps 566 mmHg 74%
    08:00 +12°C° 0 mm 1 mps 567 mmHg 68%
    09:00 +14°C° 0 mm 2 mps 568 mmHg 59%
    10:00 +16°C° 0 mm 2 mps 568 mmHg 49%
    11:00 +18°C° 0 mm 3 mps 569 mmHg 40%
    12:00 +18°C° 0 mm 3 mps 568 mmHg 35%
    13:00 +19°C° 0 mm 3 mps 568 mmHg 31%
    14:00 +20°C° 0 mm 4 mps 568 mmHg 27%
    15:00 +19°C° 0 mm 3 mps 567 mmHg 29%
    16:00 +18°C° 0 mm 3 mps 567 mmHg 32%
    17:00 +18°C° 0 mm 2 mps 567 mmHg 35%
    18:00 +16°C° 0 mm 2 mps 566 mmHg 42%
    19:00 +14°C° 0 mm 1 mps 566 mmHg 49%
    20:00 +13°C° 0 mm 1 mps 566 mmHg 56%
    21:00 +12°C° 0 mm 1 mps 565 mmHg 58%
    22:00 +12°C° 0 mm 1 mps 565 mmHg 59%
    23:00 +11°C° 0 mm 1 mps 565 mmHg 60%

    28 January, Tuesday

    Time Temperature Precipitation Wind Pressure Humidity
    00:00 +11°C° 0 mm 1 mps 564 mmHg 62%
    01:00 +10°C° 0 mm 1 mps 564 mmHg 63%
    02:00 +10°C° 0 mm 1 mps 563 mmHg 65%
    03:00 +9°C° 0 mm 1 mps 563 mmHg 65%
    04:00 +9°C° 0 mm 1 mps 563 mmHg 65%
    05:00 +8°C° 0 mm 1 mps 563 mmHg 65%
    06:00 +10°C° 0 mm 1 mps 564 mmHg 59%
    07:00 +11°C° 0 mm 1 mps 565 mmHg 54%
    08:00 +12°C° 0 mm 1 mps 566 mmHg 49%
    09:00 +14°C° 0 mm 1 mps 567 mmHg 41%
    10:00 +16°C° 0 mm 1 mps 568 mmHg 33%
    11:00 +19°C° 0 mm 1 mps 568 mmHg 25%
    12:00 +20°C° 0 mm 1 mps 568 mmHg 22%
    13:00 +20°C° 0 mm 1 mps 568 mmHg 20%
    14:00 +20°C° 0 mm 2 mps 567 mmHg 17%
    15:00 +19°C° 0 mm 2 mps 567 mmHg 24%
    16:00 +18°C° 0 mm 2 mps 567 mmHg 32%
    17:00 +17°C° 0 mm 2 mps 566 mmHg 39%
    18:00 +15°C° 0 mm 2 mps 566 mmHg 52%
    19:00 +13°C° 0 mm 2 mps 566 mmHg 65%
    20:00 +12°C° 0 mm 2 mps 566 mmHg 79%
    21:00 +10°C° 0 mm 2 mps 566 mmHg 80%
    22:00 +10°C° 0 mm 2 mps 565 mmHg 82%
    23:00 +9°C° 0 mm 2 mps 565 mmHg 83%

    29 January, Wednesday

    Time Temperature Precipitation Wind Pressure Humidity
    00:00 +9°C° 0 mm 2 mps 565 mmHg 85%
    01:00 +8°C° 0 mm 2 mps 564 mmHg 87%
    02:00 +9°C° 0 mm 1 mps 564 mmHg 89%
    03:00 +8°C° 0 mm 2 mps 564 mmHg 88%
    04:00 +8°C° 0 mm 2 mps 564 mmHg 88%
    05:00 +8°C° 0 mm 2 mps 564 mmHg 87%
    06:00 +9°C° 0 mm 2 mps 565 mmHg 83%
    07:00 +9°C° 0 mm 2 mps 566 mmHg 78%
    08:00 +10°C° 0 mm 2 mps 567 mmHg 74%
    09:00 +12°C° 0 mm 3 mps 567 mmHg 64%
    10:00 +14°C° 0 mm 3 mps 568 mmHg 54%
    11:00 +17°C° 0 mm 4 mps 569 mmHg 44%
    12:00 +16°C° 0 mm 5 mps 568 mmHg 42%
    13:00 +17°C° 0 mm 5 mps 568 mmHg 40%
    14:00 +17°C° 0 mm 6 mps 567 mmHg 37%
    15:00 +16°C° 0 mm 5 mps 567 mmHg 40%
    16:00 +16°C° 0 mm 5 mps 567 mmHg 43%
    17:00 +15°C° 0 mm 4 mps 566 mmHg 46%
    18:00 +14°C° 0 mm 4 mps 566 mmHg 49%
    19:00 +13°C° 0 mm 4 mps 566 mmHg 52%
    20:00 +12°C° 0 mm 3 mps 566 mmHg 55%
    21:00 +12°C° 0 mm 3 mps 566 mmHg 55%
    22:00 +12°C° 0 mm 3 mps 566 mmHg 56%
    23:00 +13°C° 0 mm 2 mps 566 mmHg 56%
    Show more